Home > Weather > Al Ain > Past weeks

Flag for United Arab Emirates Past Weather in Al Ain, Abu Dhabi, United Arab Emirates — Yesterday and Last 2 Weeks

Now
88 °F

Clear.


Feels Like: 93 °F
Forecast: 85 / 114 °F
Wind: 6 mph from Northwest

Location: Al Ain International Airport

Current Time: Jul 2, 2016 at 4:15:07 AM

Latest Report: Jul 2, 2016 at 3:00 AM


Visibility: 10 mi

Pressure: 29.42 "Hg

Humidity: 55%

Dew Point: 70 °F

Location of Al AinLocation

Past Weather in Al Ain — Graph

°F

Al Ain Temperature Yesterday

Maximum temperature yesterday: 113 °F (at 5:00 PM)
Minimum temperature yesterday: 93 °F (at 2:00 AM)
Average temperature yesterday: 102 °F

High & Low Weather Summary for the Past Weeks

 TemperatureHumidityPressure
High115 °F (Jun 22, 2:00 PM)66% (Jun 21, 4:00 AM)29.71 "Hg (Jun 21, 4:00 AM)
Low84 °F (Jun 21, 4:00 AM)5% (Jun 22, 12:00 PM)29.39 "Hg (Jun 27, 5:00 PM)
Average100 °F30%29.55 "Hg
* Reported Jun 17 3:00 AM — Jul 2 3:00 AM, Al Ain, Weather by CustomWeather, © 2016

Note: Actual official high and low records may vary slightly from our data, if they occured in-between our weather recording intervals... More about our weather records

Advertising

Al Ain Weather History for the Previous 24 Hours

Scroll right to see more
 ConditionsComfort  
Time TempWeatherWind HumidityBarometerVisibility
3:00 AM
Sat, Jul 2
88 °FClear.6 mph55%29.42 "Hg10 mi
2:00 AM90 °FClear.7 mph46%29.45 "Hg10 mi
1:00 AM93 °FClear.6 mph34%29.45 "Hg10 mi
12:00 AM95 °FClear.3 mph32%29.45 "Hg10 mi
11:00 PM
Fri, Jul 1
97 °FClear.7 mph32%29.47 "Hg10 mi
10:00 PM99 °FClear.9 mph35%29.47 "Hg10 mi
9:00 PM100 °FClear.10 mph37%29.45 "Hg10 mi
8:00 PM104 °FClear.13 mph38%29.45 "Hg10 mi
7:00 PM111 °FSunny.9 mph15%29.42 "Hg10 mi
6:00 PM111 °FPassing clouds.6 mph15%29.42 "HgN/A
5:00 PM113 °FSunny.5 mph15%29.42 "Hg10 mi
4:00 PM111 °FPassing clouds.7 mph18%29.42 "HgN/A
3:00 PM111 °FSunny.5 mph20%29.45 "Hg10 mi
2:00 PM109 °FSunny.12 mph23%29.47 "Hg10 mi
1:00 PM108 °FClear.6 mph25%29.47 "Hg6 mi
12:00 PM106 °FPassing clouds.9 mph28%29.50 "HgN/A
11:00 AM104 °FPassing clouds.14 mph31%29.53 "HgN/A
10:00 AM102 °FClear.18 mph35%29.53 "Hg6 mi
9:00 AM100 °FClear.17 mph37%29.53 "Hg5 mi
8:00 AM97 °FSunny.16 mph42%29.53 "Hg10 mi
7:00 AM95 °FSunny.13 mph44%29.50 "Hg10 mi
6:00 AM95 °FClear.13 mph41%29.50 "Hg5 mi
5:00 AM93 °FClear.7 mph47%29.47 "Hg5 mi
4:00 AM93 °FClear.7 mph44%29.47 "Hg10 mi
Weather by CustomWeather, © 2016

See weather overviewHow to use our weather pages